Simultaneous Nadir Overpasses (SNOs) Predictions

Prediction of SNOs between METOP-A and NOAA-19 Satellite Orbit:

Table of predicted SNOs for the next 14.0 days since TLE Epoch: 3/28/2016
Index Date (METOP-A) Time (METOP-A) Lat,Lon (METOP-A) SZA (METOP-A ) Date (NOAA-19) Time (NOAA-19) Lat,Lon (NOAA-19) SZA (NOAA-19 ) Distance(km) Time Diff (sec)
1 04/07/2016 01:40:19 -75.93, -25.36 111.09 04/07/2016 01:39:04 -75.98, -25.53 111.04 6.76 75
2 04/07/2016 02:30:59 75.90, 141.89 68.88 04/07/2016 02:30:02 75.90, 142.02 68.87 3.73 57
3 04/07/2016 03:21:41 -75.91, -50.75 111.13 04/07/2016 03:21:05 -75.93, -50.85 111.12 2.84 36
4 04/07/2016 04:12:21 75.89, 116.49 68.83 04/07/2016 04:12:04 75.89, 116.53 68.84 1.25 17
5 04/07/2016 05:03:03 -75.90, -76.15 111.17 04/07/2016 05:03:06 -75.87, -76.18 111.20 2.67 3
6 04/07/2016 05:53:43 75.87, 91.09 68.79 04/07/2016 05:54:06 75.88, 91.05 68.80 1.92 23
7 04/07/2016 06:44:25 -75.88,-101.55 111.22 04/07/2016 06:45:08 -75.87,-101.66 111.23 3.26 43
8 04/07/2016 07:35:04 75.85, 65.69 68.75 04/07/2016 07:36:06 75.83, 65.72 68.73 2.34 62
9 04/07/2016 08:25:53 -75.54,-127.99 111.58 04/07/2016 08:27:03 -75.59,-126.22 111.54 49.51 70




NCC Satellite Simultaneous Nadir Overpasses (SNOs) Prediction Service
